Change the Weather History Date:

Monday, May 6, 2013

  Actual Average Record
Temperature  
Mean Temperature 62 °F -  
Max Temperature 68 °F 75 °F 89 °F (1955)
Min Temperature 55 °F 50 °F 40 °F (1984)
Degree Days  
Heating Degree Days 4    
Growing Degree Days 12 (Base 50)    
Moisture  
Dew Point 58 °F    
Average Humidity 93    
Maximum Humidity 100    
Minimum Humidity 78    
Precipitation  
Precipitation 0.59 in - - ()
Sea Level Pressure  
Sea Level Pressure 29.90 in    
Wind  
Wind Speed 9 mph (ENE)    
Max Wind Speed 13 mph    
Max Gust Speed 20 mph    
Visibility 6 miles    
Events Rain    
Averages and records for this station are not official NWS values.
T = Trace of Precipitation, MM = Missing Value Source: NWS Daily Summary

Daily Weather History Graph

Daily Weather History Graph

Search for Another Location

Airport or City:

Trip Planner

Search our weather history database for the weather conditions in past years. The results will help you decide how hot, cold, wet, or windy it might be!

Date:

Astronomy

May. 06, 2013 Rise Set
Actual Time 6:19 AM EDT 8:09 PM EDT
Civil Twilight 5:51 AM EDT 8:37 PM EDT
Nautical Twilight 5:18 AM EDT 9:11 PM EDT
Astronomical Twilight 4:42 AM EDT 9:47 PM EDT
Moon 4:14 AM EDT (5/6) 5:13 PM EDT (5/6)
Length of Visible Light 14h 45m
Length of Day
13h 49m
Waning Crescent, 11% of the Moon is Illuminated
May 6
Waning Crescent
May 9
New
May 18
First Quarter
May 25
Full
May 31
Last Quarter

Hourly Weather History & Observations

Time (EDT) Temp. Dew Point Humidity Pressure Visibility Wind Dir Wind Speed Gust Speed Precip Events Conditions
12:50 AM 55.4 °F 53.6 °F 94% 29.99 in 3.0 mi ENE 9.2 mph - 0.00 in   Overcast
12:54 AM 55.0 °F 54.0 °F 96% 29.99 in 3.0 mi ENE 6.9 mph - 0.00 in   Overcast
1:12 AM 55.4 °F 53.6 °F 94% 29.99 in 2.5 mi ENE 10.4 mph - N/A   Overcast
1:21 AM 55.4 °F 53.6 °F 94% 29.99 in 3.0 mi ENE 8.1 mph - N/A   Overcast
1:54 AM 55.0 °F 54.0 °F 96% 29.98 in 2.5 mi ENE 11.5 mph - N/A   Overcast
2:13 AM 55.4 °F 53.6 °F 94% 29.97 in 4.0 mi ENE 10.4 mph - 0.02 in Rain Light Rain
2:54 AM 55.0 °F 54.0 °F 96% 29.96 in 5.0 mi ENE 9.2 mph - 0.02 in   Overcast
3:39 AM 55.4 °F 53.6 °F 94% 29.96 in 2.5 mi East 9.2 mph 17.3 mph 0.01 in Rain Light Rain
3:49 AM 55.4 °F 53.6 °F 94% 29.95 in 3.0 mi ENE 8.1 mph - 0.01 in Rain Light Rain
3:54 AM 55.0 °F 54.0 °F 96% 29.94 in 2.0 mi ENE 11.5 mph - 0.02 in Rain Light Rain
4:07 AM 55.4 °F 53.6 °F 94% 29.95 in 6.0 mi ENE 9.2 mph - 0.00 in   Overcast
4:54 AM 55.9 °F 54.0 °F 93% 29.93 in 9.0 mi ENE 10.4 mph 17.3 mph 0.00 in   Overcast
5:54 AM 55.9 °F 54.0 °F 93% 29.93 in 5.0 mi ENE 9.2 mph 17.3 mph N/A   Overcast
6:54 AM 55.9 °F 55.0 °F 97% 29.93 in 10.0 mi ENE 9.2 mph - 0.00 in   Overcast
7:54 AM 57.0 °F 55.0 °F 93% 29.93 in 10.0 mi ENE 12.7 mph 19.6 mph N/A   Overcast
8:54 AM 57.9 °F 55.9 °F 93% 29.93 in 10.0 mi ENE 12.7 mph 19.6 mph 0.00 in   Overcast
9:31 AM 57.2 °F 57.2 °F 100% 29.94 in 4.0 mi ENE 9.2 mph 19.6 mph 0.01 in Rain Light Rain
9:54 AM 59.0 °F 57.0 °F 93% 29.93 in 5.0 mi East 8.1 mph - 0.02 in Rain Light Rain
10:03 AM 59.0 °F 57.2 °F 94% 29.93 in 1.8 mi ENE 9.2 mph - 0.03 in Rain Rain
10:20 AM 59.0 °F 57.2 °F 94% 29.93 in 3.0 mi East 9.2 mph - 0.10 in Rain Light Rain
10:54 AM 60.1 °F 57.9 °F 93% 29.92 in 8.0 mi ENE 9.2 mph 17.3 mph 0.10 in   Overcast
11:54 AM 60.1 °F 57.9 °F 93% 29.91 in 6.0 mi East 9.2 mph - 0.03 in Rain Light Rain
12:08 PM 60.8 °F 57.2 °F 88% 29.90 in 6.0 mi East 9.2 mph 17.3 mph 0.01 in Rain Light Rain
12:10 PM 60.8 °F 57.2 °F 88% 29.90 in 5.0 mi ENE 9.2 mph 17.3 mph 0.01 in Rain Rain
12:36 PM 60.8 °F 59.0 °F 94% 29.88 in 2.0 mi ENE 12.7 mph 18.4 mph 0.09 in Rain Heavy Rain
12:49 PM 60.8 °F 59.0 °F 94% 29.87 in 4.0 mi ENE 9.2 mph 19.6 mph 0.11 in Rain Rain
12:52 PM 60.8 °F 59.0 °F 94% 29.88 in 3.0 mi ENE 10.4 mph 19.6 mph 0.12 in Rain Rain
12:54 PM 61.0 °F 59.0 °F 93% 29.87 in 2.5 mi ENE 11.5 mph 19.6 mph 0.12 in Rain Rain
12:59 PM 60.8 °F 59.0 °F 94% 29.88 in 3.0 mi ENE 9.2 mph - 0.02 in Rain Rain
1:09 PM 60.8 °F 60.8 °F 100% 29.87 in 1.5 mi ENE 9.2 mph - 0.13 in Rain Heavy Rain
1:21 PM 60.8 °F 60.8 °F 100% 29.88 in 2.0 mi SE 5.8 mph - 0.18 in Rain Rain
1:30 PM 60.8 °F 60.8 °F 100% 29.89 in 4.0 mi SSE 5.8 mph - 0.19 in Rain Light Rain
1:34 PM 60.8 °F 60.8 °F 100% 29.88 in 1.8 mi East 8.1 mph - 0.24 in Rain Heavy Rain
1:43 PM 62.6 °F 60.8 °F 94% 29.87 in 2.5 mi East 5.8 mph - 0.26 in Rain Light Rain
1:50 PM 62.6 °F 60.8 °F 94% 29.87 in 8.0 mi East 6.9 mph - 0.26 in Rain Light Rain
1:54 PM 62.1 °F 61.0 °F 96% 29.86 in 10.0 mi East 6.9 mph - 0.26 in   Overcast
2:08 PM 62.6 °F 60.8 °F 94% 29.87 in 10.0 mi ESE 5.8 mph - N/A   Overcast
2:27 PM 62.6 °F 60.8 °F 94% 29.88 in 10.0 mi East 6.9 mph - N/A   Overcast
2:35 PM 62.6 °F 60.8 °F 94% 29.88 in 10.0 mi ENE 5.8 mph - N/A   Overcast
2:54 PM 64.9 °F 60.1 °F 84% 29.87 in 10.0 mi East 5.8 mph - N/A   Overcast
3:04 PM 64.4 °F 60.8 °F 88% 29.88 in 10.0 mi East 8.1 mph - N/A   Overcast
3:21 PM 64.4 °F 60.8 °F 88% 29.86 in 10.0 mi ENE 6.9 mph - N/A   Overcast
3:54 PM 68.0 °F 61.0 °F 78% 29.84 in 10.0 mi ENE 6.9 mph - N/A   Overcast
4:54 PM 66.0 °F 60.1 °F 81% 29.83 in 10.0 mi Variable 5.8 mph - N/A   Scattered Clouds
5:16 PM 64.4 °F 59.0 °F 83% 29.84 in 10.0 mi East 5.8 mph - N/A   Overcast
5:27 PM 64.4 °F 60.8 °F 88% 29.84 in 10.0 mi ENE 6.9 mph - N/A   Overcast
5:54 PM 64.0 °F 59.0 °F 84% 29.84 in 10.0 mi ENE 5.8 mph - 0.00 in   Mostly Cloudy
6:54 PM 64.9 °F 59.0 °F 81% 29.83 in 10.0 mi NE 5.8 mph - N/A   Clear
7:54 PM 61.0 °F 57.9 °F 90% 29.84 in 10.0 mi NE 4.6 mph - N/A   Clear
8:45 PM 60.8 °F 57.2 °F 88% 29.87 in 10.0 mi NE 9.2 mph - N/A   Mostly Cloudy
8:54 PM 61.0 °F 57.9 °F 90% 29.86 in 10.0 mi NE 9.2 mph - N/A   Mostly Cloudy
9:30 PM 60.8 °F 57.2 °F 88% 29.87 in 10.0 mi NNE 6.9 mph - 0.01 in Rain Light Rain
9:54 PM 59.0 °F 57.9 °F 96% 29.88 in 10.0 mi NW 4.6 mph - 0.01 in   Mostly Cloudy
10:54 PM 59.0 °F 57.9 °F 96% 29.89 in 7.0 mi SW 5.8 mph - 0.01 in   Overcast
11:05 PM 59.0 °F 57.2 °F 94% 29.89 in 7.0 mi West 8.1 mph - N/A   Overcast
11:30 PM 59.0 °F 57.2 °F 94% 29.89 in 9.0 mi Calm Calm - N/A   Overcast
11:54 PM 60.1 °F 57.9 °F 93% 29.88 in 9.0 mi Calm Calm - N/A   Overcast